TimeAKST,TemperatureF,Dew PointF,Humidity,Sea Level PressureIn,VisibilityMPH,Wind Direction,Wind SpeedMPH,Gust SpeedMPH,PrecipitationIn,Events,Conditions,WindDirDegrees,DateUTC
12:16 AM,-20.2,-9999,N/A,29.11,5.0,NNE,12.7,-,N/A,,Mostly Cloudy,30,2012-12-13 09:16:00
12:36 AM,-20.2,-9999,N/A,29.11,5.0,NNE,12.7,-,N/A,,Overcast,30,2012-12-13 09:36:00
12:56 AM,-20.2,-9999,N/A,29.11,5.0,NNE,11.5,-,N/A,,Overcast,30,2012-12-13 09:56:00
1:16 AM,-20.2,-9999,N/A,29.12,5.0,NE,11.5,-,N/A,,Overcast,50,2012-12-13 10:16:00
1:36 AM,-20.2,-9999,N/A,29.12,8.0,NE,10.4,-,N/A,,Overcast,50,2012-12-13 10:36:00
1:56 AM,-20.2,-9999,N/A,29.12,6.0,NE,10.4,-,N/A,,Overcast,40,2012-12-13 10:56:00
2:16 AM,-22.0,-9999,N/A,29.13,7.0,NE,10.4,-,N/A,,Overcast,40,2012-12-13 11:16:00
3:36 AM,-23.8,-9999,N/A,29.13,10.0,NE,9.2,-,N/A,,Clear,40,2012-12-13 12:36:00
3:56 AM,-23.8,-9999,N/A,29.13,10.0,NNE,11.5,-,N/A,,Partly Cloudy,30,2012-12-13 12:56:00
4:16 AM,-23.8,-9999,N/A,29.14,10.0,NE,12.7,-,N/A,,Mostly Cloudy,40,2012-12-13 13:16:00
4:56 AM,-23.8,-9999,N/A,29.14,10.0,NE,11.5,-,N/A,,Clear,40,2012-12-13 13:56:00
5:16 AM,-23.8,-9999,N/A,29.14,10.0,NE,12.7,-,N/A,,Scattered Clouds,40,2012-12-13 14:16:00
5:36 AM,-22.0,-9999,N/A,29.15,10.0,NNE,12.7,-,N/A,,Mostly Cloudy,30,2012-12-13 14:36:00
5:56 AM,-22.0,-9999,N/A,29.16,10.0,NNE,13.8,-,N/A,,Scattered Clouds,30,2012-12-13 14:56:00
6:16 AM,-22.0,-9999,N/A,29.16,9.0,NE,12.7,-,N/A,,Partly Cloudy,40,2012-12-13 15:16:00
6:36 AM,-23.8,-9999,N/A,29.17,7.0,NNE,12.7,-,N/A,,Partly Cloudy,20,2012-12-13 15:36:00
6:56 AM,-23.8,-9999,N/A,29.17,10.0,NNE,12.7,-,N/A,,Clear,30,2012-12-13 15:56:00
7:16 AM,-23.8,-9999,N/A,29.17,5.0,NNE,12.7,-,N/A,,Partly Cloudy,30,2012-12-13 16:16:00
7:36 AM,-23.8,-9999,N/A,29.17,4.0,NNE,12.7,-,N/A,,Scattered Clouds,30,2012-12-13 16:36:00
7:56 AM,-23.8,-9999,N/A,29.18,5.0,NNE,11.5,-,N/A,,Overcast,30,2012-12-13 16:56:00
8:16 AM,-23.8,-9999,N/A,29.18,8.0,NNE,11.5,-,N/A,,Overcast,30,2012-12-13 17:16:00
8:36 AM,-23.8,-9999,N/A,29.18,9.0,NE,11.5,-,N/A,,Overcast,40,2012-12-13 17:36:00
8:56 AM,-23.8,-9999,N/A,29.18,10.0,NE,10.4,-,N/A,,Scattered Clouds,40,2012-12-13 17:56:00
9:16 AM,-23.8,-9999,N/A,29.18,10.0,NE,11.5,-,N/A,,Clear,40,2012-12-13 18:16:00
9:36 AM,-23.8,-9999,N/A,29.19,10.0,NE,8.1,-,N/A,,Partly Cloudy,40,2012-12-13 18:36:00
9:56 AM,-25.6,-9999,N/A,29.19,10.0,NNE,11.5,-,N/A,,Mostly Cloudy,30,2012-12-13 18:56:00
10:16 AM,-25.6,-9999,N/A,29.19,10.0,NNE,10.4,-,N/A,,Overcast,30,2012-12-13 19:16:00
10:36 AM,-23.8,-9999,N/A,29.20,10.0,NE,12.7,-,N/A,,Overcast,40,2012-12-13 19:36:00
10:56 AM,-25.6,-9999,N/A,29.21,10.0,NNE,11.5,-,N/A,,Overcast,20,2012-12-13 19:56:00
11:16 AM,-25.6,-9999,N/A,29.21,7.0,NNE,10.4,-,N/A,,Overcast,30,2012-12-13 20:16:00
11:36 AM,-25.6,-9999,N/A,29.22,10.0,NNE,8.1,-,N/A,,Overcast,30,2012-12-13 20:36:00
11:56 AM,-25.6,-9999,N/A,29.22,10.0,NNE,9.2,-,N/A,,Overcast,20,2012-12-13 20:56:00
12:16 PM,-25.6,-9999,N/A,29.23,3.0,NNE,9.2,-,N/A,,Overcast,20,2012-12-13 21:16:00
12:36 PM,-25.6,-9999,N/A,29.23,7.0,NNE,10.4,-,N/A,,Overcast,20,2012-12-13 21:36:00
12:56 PM,-25.6,-9999,N/A,29.23,10.0,North,10.4,-,N/A,,Scattered Clouds,10,2012-12-13 21:56:00
1:16 PM,-25.6,-9999,N/A,29.23,10.0,NNE,9.2,-,N/A,,Scattered Clouds,20,2012-12-13 22:16:00
1:36 PM,-27.4,-9999,N/A,29.24,8.0,NNE,8.1,-,N/A,,Mostly Cloudy,20,2012-12-13 22:36:00
2:16 PM,-27.4,-9999,N/A,29.24,9.0,North,8.1,-,N/A,,Clear,10,2012-12-13 23:16:00
2:56 PM,-27.4,-9999,N/A,29.24,10.0,North,8.1,-,N/A,,Clear,10,2012-12-13 23:56:00
3:36 PM,-27.4,-9999,N/A,29.25,10.0,North,3.5,-,N/A,,Clear,10,2012-12-14 00:36:00
3:56 PM,-27.4,-9999,N/A,29.25,5.0,Calm,Calm,-,N/A,,Clear,0,2012-12-14 00:56:00
4:16 PM,-31.0,-9999,N/A,29.26,6.0,Calm,Calm,-,N/A,,Clear,0,2012-12-14 01:16:00
4:36 PM,-29.2,-9999,N/A,29.26,5.0,Calm,Calm,-,N/A,,Clear,0,2012-12-14 01:36:00
4:56 PM,-31.0,-9999,N/A,29.26,10.0,Calm,Calm,-,N/A,,Clear,0,2012-12-14 01:56:00
5:16 PM,-31.0,-9999,N/A,29.26,10.0,North,3.5,-,N/A,,Scattered Clouds,10,2012-12-14 02:16:00
5:36 PM,-29.2,-9999,N/A,29.26,10.0,Calm,Calm,-,N/A,,Overcast,0,2012-12-14 02:36:00
5:56 PM,-29.2,-9999,N/A,29.26,8.0,North,3.5,-,N/A,,Overcast,360,2012-12-14 02:56:00
6:16 PM,-29.2,-9999,N/A,29.26,5.0,Calm,Calm,-,N/A,,Overcast,0,2012-12-14 03:16:00
6:36 PM,-29.2,-9999,N/A,29.26,9.0,Calm,Calm,-,N/A,,Mostly Cloudy,0,2012-12-14 03:36:00
6:56 PM,-29.2,-9999,N/A,29.27,10.0,Calm,Calm,-,N/A,,Mostly Cloudy,0,2012-12-14 03:56:00
7:16 PM,-29.2,-9999,N/A,29.27,5.0,Calm,Calm,-,N/A,,Mostly Cloudy,0,2012-12-14 04:16:00
7:36 PM,-29.2,-9999,N/A,29.28,10.0,Calm,Calm,-,N/A,,Overcast,0,2012-12-14 04:36:00
7:56 PM,-29.2,-9999,N/A,29.28,9.0,North,3.5,-,N/A,,Scattered Clouds,360,2012-12-14 04:56:00
8:16 PM,-27.4,-9999,N/A,29.27,10.0,Calm,Calm,-,N/A,,Scattered Clouds,0,2012-12-14 05:16:00
8:36 PM,-29.2,-9999,N/A,29.28,9.0,Calm,Calm,-,N/A,,Overcast,0,2012-12-14 05:36:00
8:56 PM,-29.2,-9999,N/A,29.28,8.0,Calm,Calm,-,N/A,,Overcast,0,2012-12-14 05:56:00
9:16 PM,-29.2,-9999,N/A,29.28,7.0,Calm,Calm,-,N/A,,Mostly Cloudy,0,2012-12-14 06:16:00
9:36 PM,-32.8,-9999,N/A,29.28,5.0,Calm,Calm,-,N/A,,Mostly Cloudy,0,2012-12-14 06:36:00
9:56 PM,-29.2,-9999,N/A,29.28,9.0,Calm,Calm,-,N/A,,Partly Cloudy,0,2012-12-14 06:56:00
10:16 PM,-31.0,-9999,N/A,29.28,10.0,Calm,Calm,-,N/A,,Clear,0,2012-12-14 07:16:00
10:36 PM,-31.0,-9999,N/A,29.28,10.0,Calm,Calm,-,N/A,,Clear,0,2012-12-14 07:36:00
10:56 PM,-29.2,-9999,N/A,29.27,10.0,Calm,Calm,-,N/A,,Clear,0,2012-12-14 07:56:00
11:16 PM,-32.8,-9999,N/A,29.28,8.0,Calm,Calm,-,N/A,,Partly Cloudy,0,2012-12-14 08:16:00
11:36 PM,-32.8,-9999,N/A,29.28,10.0,Calm,Calm,-,N/A,,Partly Cloudy,0,2012-12-14 08:36:00
11:56 PM,-31.0,-9999,N/A,29.28,9.0,Calm,Calm,-,N/A,,Clear,0,2012-12-14 08:56:00